Flag for Philippines Weather past 2 weeks in Makati, Philippines

Now
81 °F

More clouds than sun.


Feels Like: 88 °F
Forecast: 79 / 85 °F
Wind: 13 mph from West

Location: National Airport

Current Time: Jul 29, 2014 at 3:52:52 PM

Latest Report: Jul 29, 2014 at 3:00 PM


Visibility: N/A

Pressure: N/A

Humidity: 94%

Dew point: 79 °F

Location of MakatiLocation

Historic Weather in Makati — Graph

°F

Makati temperature yesterday

Maximum temperature yesterday: 84 °F (at 9:00 AM)
Minimum temperature yesterday: 77 °F (at 6:00 AM)
Average temperature yesterday: 80 °F

Past Weeks' High & Low Weather Summary

 TemperatureHumidityPressure
High91 °F (Jul 14, 3:00 PM)100% (Jul 15, 2:00 AM)29.89 "Hg (Jul 15, 2:00 AM)
Low75 °F (Jul 15, 9:00 PM)59% (Jul 14, 3:00 PM)29.18 "Hg (Jul 16, 7:00 AM)
Average81 °F90%29.73 "Hg
* Reported Jul 14 2:00 PM — Jul 29 2:00 PM, Makati, Weather by CustomWeather, © 2014

Note: Actual official high and low records may vary slightly from our data, if they occured in-between our weather recording intervals... More about our weather records

Advertising

Makati weather history for previous 24 hours

 ConditionsComfort  
Time TempWeatherWind HumidityBarometerVisibility
2:00 PM
Jul 29
81 °FLight rain. More clouds than sun.13 mph100%29.65 "Hg5 mi
1:00 PM77 °FRain. More clouds than sun.13 mph100%29.68 "Hg4 mi
12:00 PM81 °FMore clouds than sun.15 mph100%29.68 "HgN/A
11:00 AM81 °FScattered clouds.13 mph94%29.68 "HgN/A
10:00 AM84 °FScattered clouds.12 mph79%29.68 "HgN/A
9:00 AM84 °FScattered clouds.9 mph74%29.68 "HgN/A
8:00 AM82 °FScattered clouds.8 mph79%29.68 "HgN/A
7:00 AM82 °FScattered clouds.2 mph79%29.68 "HgN/A
6:00 AM77 °FScattered clouds.No wind100%29.65 "HgN/A
5:00 AM77 °FPassing clouds.No wind100%29.65 "Hg6 mi
4:00 AM79 °FWarm.1 mph94%29.65 "Hg6 mi
3:00 AM79 °FPartly cloudy.No wind100%29.68 "Hg6 mi
2:00 AM79 °FPassing clouds.1 mph100%29.68 "Hg6 mi
1:00 AM79 °FPartly cloudy.No wind100%29.71 "Hg6 mi
12:00 AM79 °FPassing clouds.3 mph100%29.71 "Hg6 mi
11:00 PM
Jul 28
79 °FPartly cloudy.2 mph94%29.71 "Hg6 mi
10:00 PM79 °FSprinkles. Passing clouds.2 mph94%29.71 "HgN/A
9:00 PM79 °FPassing clouds.3 mph94%29.71 "HgN/A
8:00 PM79 °FPassing clouds.5 mph94%29.68 "HgN/A
7:00 PM79 °FPassing clouds.5 mph89%29.68 "HgN/A
6:00 PM79 °FScattered clouds.6 mph89%29.68 "HgN/A
5:00 PM81 °FScattered clouds.8 mph84%29.65 "HgN/A
4:00 PM79 °FRain showers. Broken clouds.15 mph100%29.68 "HgN/A
3:00 PM84 °FScattered clouds.13 mph84%29.68 "HgN/A
Weather by CustomWeather, © 2014

See weather overviewHow to use our weather pages